NKS254 KFLL-KMYR

Flight info

Callsign NKS254
Flight time 1h 23m
Altitude 37000
Route AGERS1 DUCEN Q87 JROSS
Aircraft A320/M-SDE3FGHIRWY/LB1

Departure

Time 2026-05-04 01:34
Airport Fort Lauderdale Hollywood International Airport (KFLL)

Arrival

Time 2026-05-04 02:57
Airport Myrtle Beach International Airport (KMYR)
Time Latitude Longitude Altitude Speed Heading
2026-05-04 00:57 26.06877 -80.14516 16 ft 0 kts
2026-05-04 00:58 26.06881 -80.14474 16 ft 0 kts
2026-05-04 01:17 26.06872 -80.14474 16 ft 3 kts 358°
2026-05-04 01:17 26.06852 -80.14473 17 ft 3 kts 349°
2026-05-04 01:17 26.06833 -80.14467 18 ft 3 kts 329°
2026-05-04 01:17 26.06820 -80.14454 17 ft 2 kts 284°
2026-05-04 01:18 26.06818 -80.14447 17 ft 0 kts 271°
2026-05-04 01:25 26.06818 -80.14449 16 ft 2 kts 271°
2026-05-04 01:25 26.06819 -80.14505 16 ft 11 kts 271°
2026-05-04 01:25 26.06787 -80.14587 16 ft 13 kts 222°
2026-05-04 01:25 26.06766 -80.14690 16 ft 15 kts 270°
2026-05-04 01:26 26.06766 -80.14820 16 ft 18 kts 270°
2026-05-04 01:26 26.06741 -80.14918 16 ft 12 kts 200°
2026-05-04 01:26 26.06695 -80.14972 16 ft 11 kts 266°
2026-05-04 01:26 26.06695 -80.15070 16 ft 14 kts 270°
2026-05-04 01:27 26.06695 -80.15187 16 ft 16 kts 270°
2026-05-04 01:27 26.06695 -80.15324 16 ft 19 kts 270°
2026-05-04 01:27 26.06697 -80.15464 16 ft 16 kts 271°
2026-05-04 01:27 26.06698 -80.15598 16 ft 18 kts 270°
2026-05-04 01:28 26.06697 -80.15719 16 ft 4 kts 270°
2026-05-04 01:29 26.06697 -80.15724 16 ft 2 kts 270°
2026-05-04 01:29 26.06699 -80.15775 16 ft 8 kts 271°
2026-05-04 01:29 26.06679 -80.15818 17 ft 0 kts 207°
2026-05-04 01:31 26.06646 -80.15823 17 ft 8 kts 182°
2026-05-04 01:32 26.06595 -80.15812 18 ft 7 kts 131°
2026-05-04 01:32 26.06589 -80.15780 19 ft 0 kts 92°
2026-05-04 01:33 26.06589 -80.15756 19 ft 16 kts 91°
2026-05-04 01:33 26.06586 -80.15271 23 ft 108 kts 90°
2026-05-04 01:34 26.06581 -80.14177 94 ft 170 kts 90°
2026-05-04 01:34 26.06579 -80.12801 783 ft 184 kts 87°
2026-05-04 01:34 26.06644 -80.11361 1759 ft 185 kts 78°
2026-05-04 01:34 26.07175 -80.10018 2242 ft 201 kts 53°
2026-05-04 01:35 26.08037 -80.08664 2536 ft 227 kts 56°
2026-05-04 01:35 26.09111 -80.07268 2930 ft 251 kts 34°
2026-05-04 01:35 26.10752 -80.06471 3487 ft 266 kts 16°
2026-05-04 01:35 26.12537 -80.05798 4343 ft 273 kts 18°
2026-05-04 01:36 26.14326 -80.05104 5216 ft 278 kts 12°
2026-05-04 01:36 26.16262 -80.04975 6062 ft 278 kts 346°
2026-05-04 01:36 26.18091 -80.05579 6891 ft 279 kts 337°
2026-05-04 01:36 26.19923 -80.06303 7754 ft 280 kts 333°
2026-05-04 01:37 26.21598 -80.07444 8593 ft 278 kts 315°
2026-05-04 01:37 26.22872 -80.09044 9443 ft 276 kts 299°
2026-05-04 01:37 26.23712 -80.10962 10230 ft 278 kts 288°
2026-05-04 01:37 26.24461 -80.13010 10500 ft 301 kts 293°
2026-05-04 01:38 26.25661 -80.15073 10770 ft 325 kts 307°
2026-05-04 01:38 26.27332 -80.16784 11335 ft 337 kts 321°
2026-05-04 01:38 26.28926 -80.17845 11851 ft 344 kts 328°
2026-05-04 01:38 26.31054 -80.19094 12543 ft 347 kts 328°
2026-05-04 01:39 26.33216 -80.20320 13228 ft 351 kts 329°
2026-05-04 01:39 26.35411 -80.21545 13896 ft 355 kts 329°
2026-05-04 01:39 26.37723 -80.22568 14471 ft 364 kts 340°
2026-05-04 01:39 26.40253 -80.23055 15046 ft 373 kts 350°
2026-05-04 01:40 26.42850 -80.23301 15617 ft 377 kts 349°
2026-05-04 01:40 26.45470 -80.23562 16184 ft 380 kts 349°
2026-05-04 01:40 26.48124 -80.23835 16745 ft 384 kts 349°
2026-05-04 01:40 26.50791 -80.24115 17318 ft 388 kts 348°
2026-05-04 01:41 26.53494 -80.24400 17861 ft 392 kts 348°
2026-05-04 01:41 26.56222 -80.24691 18413 ft 395 kts 348°
2026-05-04 01:41 26.58959 -80.25048 18895 ft 398 kts 346°
2026-05-04 01:41 26.61705 -80.25486 19394 ft 400 kts 344°
2026-05-04 01:42 26.64469 -80.25972 19885 ft 403 kts 343°
2026-05-04 01:42 26.67209 -80.26467 20387 ft 406 kts 343°
2026-05-04 01:42 26.69994 -80.26997 20869 ft 406 kts 339°
2026-05-04 01:42 26.72678 -80.27920 21328 ft 401 kts 331°
2026-05-04 01:43 26.75297 -80.29025 21804 ft 404 kts 331°
2026-05-04 01:43 26.77939 -80.30134 22268 ft 407 kts 331°
2026-05-04 01:43 26.80605 -80.31247 22718 ft 411 kts 331°
2026-05-04 01:43 26.83290 -80.32368 23171 ft 413 kts 330°
2026-05-04 01:44 26.85995 -80.33500 23605 ft 416 kts 330°
2026-05-04 01:44 26.88719 -80.34641 23976 ft 419 kts 330°
2026-05-04 01:44 26.91461 -80.35789 24352 ft 422 kts 330°
2026-05-04 01:44 26.94219 -80.36944 24739 ft 424 kts 330°
2026-05-04 01:45 26.96998 -80.38093 25131 ft 427 kts 330°
2026-05-04 01:45 26.99801 -80.39229 25521 ft 429 kts 331°
2026-05-04 01:45 27.05454 -80.41489 26298 ft 434 kts 331°
2026-05-04 01:46 27.08307 -80.42631 26680 ft 436 kts 330°
2026-05-04 01:46 27.11119 -80.43782 27072 ft 437 kts 330°
2026-05-04 01:46 27.13962 -80.45005 27470 ft 438 kts 329°
2026-05-04 01:46 27.16794 -80.46265 27875 ft 439 kts 328°
2026-05-04 01:47 27.19635 -80.47547 28273 ft 441 kts 328°
2026-05-04 01:47 27.22491 -80.48839 28679 ft 443 kts 328°
2026-05-04 01:47 27.25361 -80.50131 29073 ft 445 kts 328°
2026-05-04 01:47 27.28243 -80.51418 29470 ft 448 kts 328°
2026-05-04 01:48 27.31157 -80.52709 29854 ft 450 kts 328°
2026-05-04 01:48 27.34071 -80.53994 30220 ft 452 kts 328°
2026-05-04 01:48 27.37005 -80.55286 30527 ft 455 kts 329°
2026-05-04 01:48 27.39992 -80.56546 30816 ft 459 kts 330°
2026-05-04 01:49 27.43003 -80.57747 31216 ft 460 kts 330°
2026-05-04 01:49 27.46030 -80.58919 31622 ft 460 kts 330°
2026-05-04 01:49 27.49059 -80.60083 32019 ft 460 kts 330°
2026-05-04 01:49 27.52085 -80.61252 32423 ft 460 kts 330°
2026-05-04 01:50 27.55118 -80.62438 32823 ft 460 kts 329°
2026-05-04 01:50 27.58096 -80.63618 33230 ft 460 kts 329°
2026-05-04 01:50 27.61114 -80.64820 33642 ft 460 kts 328°
2026-05-04 01:50 27.64115 -80.66019 34061 ft 460 kts 328°
2026-05-04 01:51 27.67135 -80.67228 34445 ft 459 kts 328°
2026-05-04 01:51 27.70140 -80.68431 34852 ft 457 kts 328°
2026-05-04 01:51 27.73133 -80.69626 35273 ft 455 kts 328°
2026-05-04 01:51 27.76107 -80.70809 35687 ft 453 kts 327°
2026-05-04 01:52 27.79078 -80.71992 36092 ft 451 kts 327°
2026-05-04 01:52 27.82030 -80.73171 36487 ft 449 kts 327°
2026-05-04 01:52 27.84961 -80.74344 36871 ft 447 kts 326°
2026-05-04 01:52 27.87892 -80.75520 37051 ft 447 kts 326°
2026-05-04 01:53 27.93739 -80.77877 37085 ft 446 kts 326°
2026-05-04 01:53 27.99597 -80.80236 37089 ft 446 kts 326°
2026-05-04 01:54 28.05450 -80.82583 37089 ft 447 kts 326°
2026-05-04 01:54 28.11304 -80.84937 37090 ft 447 kts 326°
2026-05-04 01:55 28.17119 -80.87281 37094 ft 447 kts 325°
2026-05-04 01:55 28.22982 -80.89647 37092 ft 447 kts 325°
2026-05-04 01:56 28.28851 -80.92014 37112 ft 447 kts 325°
2026-05-04 01:56 28.34717 -80.94382 37124 ft 448 kts 325°
2026-05-04 01:57 28.40581 -80.96757 37132 ft 448 kts 325°
2026-05-04 01:57 28.46444 -80.99139 37140 ft 448 kts 325°
2026-05-04 01:58 28.52316 -81.01524 37135 ft 448 kts 325°
2026-05-04 01:58 28.58182 -81.03903 37135 ft 448 kts 325°
2026-05-04 01:59 28.64058 -81.06283 37145 ft 448 kts 325°
2026-05-04 01:59 28.69889 -81.08652 37153 ft 448 kts 324°
2026-05-04 02:00 28.75762 -81.11054 37161 ft 448 kts 324°
2026-05-04 02:00 28.81628 -81.13456 37160 ft 448 kts 324°
2026-05-04 02:01 28.87495 -81.15856 37151 ft 448 kts 324°
2026-05-04 02:01 28.93378 -81.18253 37167 ft 448 kts 325°
2026-05-04 02:02 28.99240 -81.20654 37167 ft 448 kts 325°
2026-05-04 02:02 29.05117 -81.23060 37162 ft 448 kts 325°
2026-05-04 02:03 29.10981 -81.25467 37173 ft 448 kts 325°
2026-05-04 02:03 29.16867 -81.27888 37178 ft 449 kts 325°
2026-05-04 02:04 29.22742 -81.30300 37169 ft 449 kts 326°
2026-05-04 02:04 29.28793 -81.32320 37172 ft 472 kts 339°
2026-05-04 02:05 29.35441 -81.32802 37177 ft 482 kts 343°
2026-05-04 02:05 29.42140 -81.33172 37180 ft 482 kts 344°
2026-05-04 02:06 29.48801 -81.33542 37183 ft 482 kts 344°
2026-05-04 02:06 29.55497 -81.33935 37181 ft 481 kts 344°
2026-05-04 02:07 29.62179 -81.34340 37181 ft 480 kts 344°
2026-05-04 02:07 29.68841 -81.34747 37183 ft 479 kts 344°
2026-05-04 02:08 29.75496 -81.35138 37194 ft 479 kts 344°
2026-05-04 02:08 29.82151 -81.35530 37187 ft 478 kts 344°
2026-05-04 02:09 29.87675 -81.35859 37191 ft 478 kts 344°
2026-05-04 02:09 29.94326 -81.36261 37194 ft 478 kts 344°
2026-05-04 02:10 30.02035 -81.36721 37191 ft 478 kts 345°
2026-05-04 02:10 30.08673 -81.37112 37191 ft 477 kts 345°
2026-05-04 02:11 30.14218 -81.37440 37189 ft 477 kts 345°
2026-05-04 02:11 30.20805 -81.37832 37186 ft 476 kts 345°
2026-05-04 02:12 30.27417 -81.38224 37185 ft 476 kts 345°
2026-05-04 02:12 30.34031 -81.38622 37178 ft 475 kts 345°
2026-05-04 02:13 30.40632 -81.39022 37182 ft 475 kts 345°
2026-05-04 02:13 30.47215 -81.39420 37184 ft 474 kts 345°
2026-05-04 02:14 30.53803 -81.39786 37201 ft 474 kts 346°
2026-05-04 02:14 30.60400 -81.40115 37198 ft 474 kts 346°
2026-05-04 02:15 30.66989 -81.40445 37199 ft 474 kts 346°
2026-05-04 02:15 30.73571 -81.40796 37193 ft 473 kts 346°
2026-05-04 02:16 30.80138 -81.41155 37186 ft 473 kts 346°
2026-05-04 02:16 30.86705 -81.41507 37179 ft 472 kts 346°
2026-05-04 02:17 30.93236 -81.41850 37172 ft 473 kts 346°
2026-05-04 02:17 30.99854 -81.42192 37174 ft 473 kts 346°
2026-05-04 02:18 31.06378 -81.42541 37178 ft 473 kts 346°
2026-05-04 02:18 31.12950 -81.42902 37181 ft 472 kts 346°
2026-05-04 02:19 31.19515 -81.43257 37185 ft 472 kts 346°
2026-05-04 02:19 31.22828 -81.43253 37199 ft 483 kts 355°
2026-05-04 02:19 31.26186 -81.42611 37201 ft 497 kts
2026-05-04 02:20 31.29488 -81.41277 37187 ft 509 kts 17°
2026-05-04 02:20 31.32702 -81.39533 37190 ft 510 kts 17°
2026-05-04 02:20 31.39142 -81.36022 37187 ft 510 kts 17°
2026-05-04 02:21 31.45589 -81.32525 37184 ft 511 kts 17°
2026-05-04 02:21 31.52049 -81.29025 37178 ft 511 kts 17°
2026-05-04 02:22 31.58485 -81.25522 37166 ft 511 kts 17°
2026-05-04 02:22 31.64932 -81.22002 37163 ft 511 kts 17°
2026-05-04 02:23 31.71332 -81.18503 37157 ft 511 kts 17°
2026-05-04 02:23 31.77823 -81.14958 37152 ft 511 kts 18°
2026-05-04 02:24 31.84218 -81.11456 37148 ft 511 kts 18°
2026-05-04 02:24 31.90670 -81.07909 37148 ft 511 kts 18°
2026-05-04 02:25 31.97106 -81.04378 37149 ft 510 kts 18°
2026-05-04 02:25 32.03536 -81.00825 37151 ft 510 kts 18°
2026-05-04 02:26 32.09948 -80.97231 37162 ft 510 kts 18°
2026-05-04 02:26 32.16348 -80.93629 37177 ft 510 kts 18°
2026-05-04 02:27 32.22752 -80.90037 37188 ft 510 kts 18°
2026-05-04 02:27 32.29159 -80.86437 37192 ft 510 kts 18°
2026-05-04 02:28 32.35568 -80.82830 37180 ft 509 kts 18°
2026-05-04 02:28 32.41964 -80.79228 37183 ft 509 kts 19°
2026-05-04 02:29 32.48353 -80.75624 37188 ft 509 kts 19°
2026-05-04 02:29 32.54701 -80.72028 37183 ft 509 kts 19°
2026-05-04 02:30 32.61095 -80.68409 37175 ft 508 kts 19°
2026-05-04 02:30 32.67470 -80.64801 37177 ft 508 kts 19°
2026-05-04 02:31 32.70664 -80.62986 37053 ft 508 kts 19°
2026-05-04 02:31 32.73849 -80.61168 36520 ft 507 kts 19°
2026-05-04 02:31 32.77022 -80.59367 35941 ft 506 kts 19°
2026-05-04 02:31 32.80202 -80.57578 35346 ft 506 kts 19°
2026-05-04 02:32 32.83394 -80.55799 34749 ft 507 kts 19°
2026-05-04 02:32 32.86595 -80.54031 34142 ft 507 kts 19°
2026-05-04 02:32 32.89800 -80.52277 33436 ft 507 kts 19°
2026-05-04 02:32 32.92998 -80.50541 32770 ft 506 kts 19°
2026-05-04 02:33 32.96184 -80.48821 32299 ft 501 kts 19°
2026-05-04 02:33 32.99344 -80.47121 31817 ft 496 kts 19°
2026-05-04 02:33 33.02468 -80.45446 31318 ft 491 kts 19°
2026-05-04 02:33 33.05566 -80.43791 30846 ft 486 kts 19°
2026-05-04 02:34 33.08627 -80.42159 30621 ft 471 kts 19°
2026-05-04 02:34 33.10789 -80.41000 30492 ft 455 kts 19°
2026-05-04 02:34 33.12038 -80.40327 30323 ft 448 kts 19°
2026-05-04 02:34 33.14841 -80.38816 29728 ft 438 kts 19°
2026-05-04 02:35 33.17589 -80.37336 29053 ft 430 kts 19°
2026-05-04 02:35 33.20303 -80.35879 28395 ft 424 kts 19°
2026-05-04 02:35 33.22938 -80.34470 27824 ft 417 kts 19°
2026-05-04 02:35 33.25603 -80.33052 27231 ft 412 kts 19°
2026-05-04 02:36 33.28203 -80.31673 26652 ft 406 kts 19°
2026-05-04 02:36 33.30728 -80.30341 26088 ft 400 kts 19°
2026-05-04 02:36 33.33291 -80.28996 25528 ft 394 kts 19°
2026-05-04 02:36 33.35795 -80.27690 24965 ft 389 kts 19°
2026-05-04 02:37 33.38219 -80.26433 24426 ft 384 kts 19°
2026-05-04 02:37 33.40655 -80.25176 23899 ft 378 kts 19°
2026-05-04 02:37 33.43063 -80.23940 23295 ft 373 kts 19°
2026-05-04 02:37 33.45428 -80.22728 22658 ft 368 kts 19°
2026-05-04 02:38 33.47769 -80.21530 22034 ft 364 kts 19°
2026-05-04 02:38 33.50083 -80.20347 21419 ft 360 kts 19°
2026-05-04 02:38 33.52377 -80.19175 20819 ft 356 kts 19°
2026-05-04 02:38 33.54643 -80.18018 20230 ft 352 kts 19°
2026-05-04 02:39 33.56887 -80.16874 19657 ft 348 kts 19°
2026-05-04 02:39 33.58910 -80.15844 19151 ft 345 kts 19°
2026-05-04 02:39 33.61118 -80.14722 18596 ft 342 kts 19°
2026-05-04 02:39 33.63303 -80.13613 18019 ft 339 kts 18°
2026-05-04 02:40 33.65463 -80.12519 17443 ft 335 kts 19°
2026-05-04 02:40 33.67528 -80.11476 16917 ft 331 kts 19°
2026-05-04 02:40 33.69636 -80.10415 16370 ft 327 kts 19°
2026-05-04 02:40 33.71726 -80.09368 15833 ft 323 kts 19°
2026-05-04 02:41 33.73784 -80.08340 15329 ft 320 kts 18°
2026-05-04 02:41 33.75825 -80.07326 14851 ft 316 kts 19°
2026-05-04 02:41 33.77830 -80.06332 14351 ft 312 kts 19°
2026-05-04 02:41 33.79830 -80.05343 13847 ft 309 kts 19°
2026-05-04 02:42 33.81806 -80.04369 13336 ft 305 kts 19°
2026-05-04 02:42 33.83671 -80.03189 13062 ft 308 kts 34°
2026-05-04 02:42 33.85161 -80.01164 12808 ft 339 kts 58°
2026-05-04 02:42 33.85862 -79.98429 12558 ft 348 kts 84°
2026-05-04 02:43 33.85934 -79.95510 12301 ft 349 kts 87°
2026-05-04 02:43 33.85969 -79.92598 12047 ft 348 kts 88°
2026-05-04 02:43 33.85999 -79.89683 11786 ft 347 kts 87°
2026-05-04 02:43 33.86031 -79.86794 11549 ft 345 kts 87°
2026-05-04 02:44 33.86066 -79.83915 11304 ft 343 kts 87°
2026-05-04 02:44 33.86104 -79.81052 11058 ft 342 kts 87°
2026-05-04 02:44 33.86143 -79.78208 10813 ft 340 kts 87°
2026-05-04 02:44 33.86183 -79.75369 10570 ft 338 kts 87°
2026-05-04 02:45 33.86222 -79.72550 10330 ft 336 kts 87°
2026-05-04 02:45 33.86259 -79.69753 10091 ft 335 kts 86°
2026-05-04 02:45 33.86292 -79.66960 9868 ft 328 kts 87°
2026-05-04 02:45 33.86321 -79.64310 9729 ft 308 kts 86°
2026-05-04 02:46 33.86349 -79.61763 9590 ft 302 kts 86°
2026-05-04 02:46 33.86379 -79.59237 9454 ft 300 kts 87°
2026-05-04 02:46 33.86411 -79.56736 9312 ft 300 kts 87°
2026-05-04 02:46 33.86445 -79.54227 9185 ft 299 kts 87°
2026-05-04 02:47 33.86475 -79.51723 9060 ft 299 kts 87°
2026-05-04 02:47 33.86503 -79.49234 8933 ft 297 kts 87°
2026-05-04 02:47 33.86530 -79.46757 8797 ft 296 kts 87°
2026-05-04 02:47 33.86555 -79.44272 8677 ft 296 kts 87°
2026-05-04 02:48 33.86582 -79.41843 8542 ft 294 kts 87°
2026-05-04 02:48 33.86612 -79.39353 8416 ft 294 kts 87°
2026-05-04 02:48 33.86639 -79.36936 8293 ft 293 kts 87°
2026-05-04 02:48 33.86663 -79.34488 8168 ft 292 kts 87°
2026-05-04 02:49 33.86684 -79.32051 7961 ft 292 kts 88°
2026-05-04 02:49 33.86708 -79.29597 7546 ft 294 kts 88°
2026-05-04 02:49 33.86733 -79.27151 7284 ft 292 kts 88°
2026-05-04 02:49 33.86757 -79.24719 6983 ft 290 kts 88°
2026-05-04 02:50 33.86779 -79.22297 6672 ft 290 kts 88°
2026-05-04 02:50 33.86800 -79.19883 6427 ft 288 kts 88°
2026-05-04 02:50 33.86820 -79.17494 5960 ft 285 kts 89°
2026-05-04 02:50 33.86842 -79.15118 5394 ft 285 kts 89°
2026-05-04 02:51 33.86862 -79.12744 4976 ft 281 kts 89°
2026-05-04 02:51 33.86881 -79.10401 4392 ft 280 kts 89°
2026-05-04 02:51 33.86899 -79.08064 3833 ft 278 kts 90°
2026-05-04 02:51 33.86916 -79.05753 3353 ft 275 kts 90°
2026-05-04 02:52 33.86932 -79.03446 2904 ft 274 kts 91°
2026-05-04 02:52 33.86927 -79.01187 2390 ft 268 kts 97°
2026-05-04 02:52 33.86385 -78.99129 2204 ft 249 kts 123°
2026-05-04 02:52 33.85296 -78.97642 2132 ft 226 kts 147°
2026-05-04 02:53 33.83966 -78.96847 2060 ft 205 kts 167°
2026-05-04 02:53 33.82641 -78.96508 1978 ft 191 kts 170°
2026-05-04 02:53 33.81368 -78.96190 1935 ft 182 kts 170°
2026-05-04 02:53 33.80168 -78.95886 1789 ft 169 kts 171°
2026-05-04 02:54 33.79082 -78.95610 1753 ft 153 kts 171°
2026-05-04 02:54 33.78048 -78.95351 1661 ft 151 kts 171°
2026-05-04 02:54 33.77051 -78.95104 1591 ft 139 kts 172°
2026-05-04 02:54 33.76115 -78.94870 1472 ft 136 kts 170°
2026-05-04 02:55 33.74322 -78.94415 1113 ft 131 kts 172°
2026-05-04 02:55 33.73446 -78.94208 893 ft 129 kts 171°
2026-05-04 02:55 33.72563 -78.93982 766 ft 128 kts 171°
2026-05-04 02:56 33.71684 -78.93756 565 ft 130 kts 171°
2026-05-04 02:56 33.70804 -78.93545 391 ft 128 kts 170°
2026-05-04 02:56 33.69926 -78.93319 200 ft 128 kts 169°
2026-05-04 02:56 33.69050 -78.93099 46 ft 126 kts 170°
2026-05-04 02:57 33.68302 -78.92915 31 ft 88 kts 168°
2026-05-04 02:57 33.67868 -78.92806 32 ft 39 kts 168°
2026-05-04 02:57 33.67695 -78.92760 32 ft 23 kts 163°
2026-05-04 02:57 33.67556 -78.92658 31 ft 20 kts 139°
2026-05-04 02:58 33.67496 -78.92590 31 ft 7 kts 136°
2026-05-04 02:58 33.67476 -78.92536 32 ft 9 kts 72°
2026-05-04 02:58 33.67545 -78.92524 32 ft 14 kts 349°
2026-05-04 02:58 33.67650 -78.92549 32 ft 17 kts 348°
2026-05-04 02:59 33.67773 -78.92578 32 ft 20 kts 348°
2026-05-04 02:59 33.67909 -78.92612 32 ft 21 kts 349°
2026-05-04 02:59 33.68040 -78.92643 32 ft 12 kts 349°
2026-05-04 02:59 33.68098 -78.92579 31 ft 14 kts 77°
2026-05-04 03:00 33.68118 -78.92477 32 ft 7 kts 77°
2026-05-04 03:00 33.68113 -78.92428 32 ft 6 kts 142°
2026-05-04 03:00 33.68081 -78.92421 32 ft 5 kts 170°
2026-05-04 03:00 33.68073 -78.92419 32 ft 0 kts 169°